Location: *
(46.1833°N, 22.7667°E)
Time: 05:28:47
(UTC+00:00)

Cosmos 2237 Rocket - Pass Details

Date: 17 September 2019
Orbit: 833 x 851 km, 71.0° (Epoch: 15 October)

Event Time Altitude Azimuth Distance (km) Brightness Sun altitude
Rises 18:14:00 0° 335° (NNW) 3,424 6.1 -17.1°
Reaches altitude 10° 18:16:29 10° 338° (NNW) 2,487 5.3 -17.5°
Maximum altitude 18:22:11 68° 61° (ENE) 919 2.2 -18.4°
Enters shadow 18:24:56 31° 135° (SE) 1,445 2.9 -18.8°
